Activity Log for Oct, 22 2019

Back to Activity Log Search


Incident Time Nature Address
19F130020 00:04:33 30 TRAFFIC STOP COVINGTON RD & ARDMORE AVE
19F130021 00:13:01 48,36 POLK ST & FRANKLIN AVE
19F130022 00:18:26 113 SHOTS FIRED ALEXANDER ST & DREXEL AVE
19F130023 00:19:04 48 SUSPICIOUS FRANKLIN AVE & POLK ST
19F130024 00:23:31 30 TRAFFIC STOP MAUMEE AVE & SIDNEY ST
19F130025 00:24:56 30 TRAFFIC STOP W JEFFERSON BLVD & ARDMORE AVE
19F130026 00:28:18 103 UNWANTED 10XX N COLISEUM BLVD
19F130027 00:32:04 30 TRAFFIC STOP MAPLECREST RD & ST JOE CENTER RD
19F130028 00:32:25 66 MENTALLY ILL E STATE BLVD & N CLINTON ST
19F130033 00:35:13 15 ASSIST 25XX ST MARYS AVE
19F130029 00:36:04 25HS HIT SKIP 116XX WESTWIND DR
19F130030 00:37:49 103 UNWANTED 22XX DUNKELBERG RD
19F130031 00:37:50 103 UNWANTED 27XX W COLISEUM BLVD
19F130032 00:39:37 50IP BURG I/P 67XX COVINGTON CREEK TRL
19F130034 00:40:27 43 DISTURBANCE 12XX GRANT AVE
19F130036 00:46:31 46 DOMESTIC 20XX ST JOSEPH BLVD
19F130035 00:47:04 43 DISTURBANCE 15XX TAYLOR ST
19F130037 00:47:04 102,TX THREATS 4XX TREELINE CV
19F130038 00:54:00 103 UNWANTED 49XX LIMA RD
19F130039 00:59:07 43 DISTURBANCE 4XX E SUTTENFIELD AVE
19F130040 01:02:01 1 MEET N CLINTON ST & E STATE BLVD
19F130041 01:05:42 48 SUSPICIOUS 51XX WEBSTER ST
19F130042 01:09:20 103 UNWANTED 9XX FRANCIS ST
19F130043 01:17:00 40A AUDIBLE 14XX BROADWAY
19F130044 01:21:21 14 WARRANT 49XX LIMA RD
19F130045 01:31:22 30 TRAFFIC STOP HESSEN CASSEL RD & E RUDISILL BLVD
19F130046 01:32:40 40A AUDIBLE 63XX W JEFFERSON BLVD
19F130047 01:39:49 50IP BURG I/P 42XX CHIPPENDALE CT
19F130048 01:42:13 48 SUSPICIOUS 23XX BROOKLYN AVE
19F130049 02:15:28 50IP BURG I/P 7XX W DEWALD ST
19F130050 02:34:47 48 SUSPICIOUS 27XX W WASHINGTON CENTER RD
19F130051 02:41:19 911 HANG UP 21XX OAKLEY ST
19F130052 02:45:48 48,36 43XX RIVER BLUFF DR
19F130053 02:50:31 50JO 61XX GUILD DR
19F130054 03:03:11 911 HANG UP 34XX SCHELE AVE
19F130055 03:45:17 65A SUICIDE ATT 69XX POINTE INVERNESS WAY
19F130056 04:00:07 48 SUSPICIOUS 7XX W DEWALD ST
19F130057 04:08:11 30 TRAFFIC STOP S HANNA ST & BOLTZ ST
19F130058 04:35:44 66 MENTALLY ILL 7XX W DEWALD ST
19F130059 05:02:31 96JO 11XX GOSHEN AVE
19F130060 05:09:03 25 PD ACCIDENT W COOK RD & FRITZ RD
19F130061 05:24:48 44 NUISANCE 24XX WELLS ST
19F130062 05:27:38 46,96 24XX DEERWOOD DR
19F130063 05:31:49 40A AUDIBLE 33XX E COLISEUM BLVD
19F130064 05:35:38 40A AUDIBLE 45XX N CLINTON ST
19F130065 05:36:52 911 HANG UP 7XX W DEWALD ST
19F130066 06:05:49 40A AUDIBLE 34XX CONESTOGA DR
19F130067 06:12:03 63 CONTACT 50XX N CLINTON ST
19F130068 06:15:38 25 PD ACCIDENT E COOK RD & COLDWATER RD
19F130069 06:23:29 48,36 46XX E WASHINGTON BLVD
19F130070 06:25:14 43 DISTURBANCE 46XX E WASHINGTON BLVD
19F130071 06:34:33 EMS 2XX W OAKDALE DR
19F130072 06:37:14 30 TRAFFIC STOP 1XX S CLINTON ST
19F130073 06:43:14 63 CONTACT 51XX N CLINTON ST
19F130074 06:45:58 40A AUDIBLE 64XX BLUFFTON RD
19F130075 06:48:13 25 PD ACCIDENT W DUPONT RD & LIMA RD
19F130076 06:48:50 22RN RUNAWAY 13XX POLK ST
19F130077 07:01:41 66 72 HOUR 79XX W JEFFERSON BLVD
19F130078 07:04:36 40A AUDIBLE 35XX N CLINTON ST
19F130079 07:10:54 46 DOMESTIC 6XX RIDGEMOOR DR
19F130083 07:14:24 18 WORK TRAFFIC TRIER RD & FERNBANK DR
19F130082 07:15:33 18 WORK TRAFFIC PRESTWICK RUN & ST JOE CENTER RD
19F130081 07:17:29 18 WORK TRAFFIC W CREIGHTON AVE & HOAGLAND AVE
19F130080 07:26:31 48 SUSPICIOUS 29XX EUCLID AVE
19F130084 07:33:33 113 SHOTS FIRED 30XX S CLINTON ST
19F130085 07:43:21 25 PD ACCIDENT HOBSON RD & STELLHORN RD
19F130086 07:54:59 40A AUDIBLE 40XX OPTION PASS
19F130087 07:58:03 55 FIGHT AIRPORT DR & PIPER DR
19F130089 08:01:26 96 BATTERY 66XX FAIRFIELD AVE
19F130090 08:01:34 17 MOTOR CHECK 33XX ENGLE RD
19F130088 08:02:07 40A AUDIBLE 102XX COLDWATER RD
19F130091 08:06:06 35 PARKED VEHIC WESTWIND DR & CANDLEWOOD WAY
19F130092 08:08:28 26 PI ACCIDENT E JEFFERSON BLVD & S HANNA ST
19F130093 08:12:41 25 PD ACCIDENT 311XX I 69 SB
19F130095 08:17:55 25 PD ACCIDENT 70XX COLDWATER RD
19F130097 08:20:39 40A AUDIBLE 40XX S ANTHONY BLVD
19F130094 08:21:02 30 TRAFFIC STOP W JEFFERSON BLVD & W MAIN ST
19F130098 08:28:02 30 TRAFFIC STOP W STATE BLVD & CAMBRIDGE BLVD
19F130099 08:29:53 51,ATTEMPTED 45XX AVONDALE DR
19F130100 08:41:59 43 DISTURBANCE 75XX SOUTHTOWN XING
19F130101 09:01:06 25 PD ACCIDENT 16XX E WASHINGTON BLVD
19F130103 09:09:42 46,96 3XX W WILDWOOD AVE
19F130102 09:10:26 51 THEFT 22XX MUSCODAY PASS
19F130104 09:12:22 51,35 80XX SILVER SPRINGS PL
19F130105 09:17:29 40P PANIC ALARM 30XX LAKE AVE
19F130106 09:20:33 46 DOMESTIC 22XX DUNKELBERG RD
19F130107 09:30:30 1 MEET 23XX CHESTNUT ST
19F130108 09:30:35 46 DOMESTIC 9XX POINTE CENTER CV
19F130110 09:37:19 40A AUDIBLE 61XX LIMA RD
19F130111 09:39:42 23,35 VAND VEH 39XX E DUPONT RD
19F130112 09:42:33 30 TRAFFIC STOP SMITH ST & E PAULDING RD
19F130114 09:42:44 33J LOCKED OUT 26XX SUMAC CT
19F130113 09:43:02 26 PI ACCIDENT 25XX SPY RUN AVE
19F130115 09:48:54 911 HANG UP 51XX S ANTHONY BLVD
19F130116 09:51:14 38 LOST/STOLEN 16XX CHEROKEE RD
19F130117 09:53:18 30 TRAFFIC STOP LIMA RD & W LUDWIG RD
19F130120 09:56:31 103 UNWANTED 74XX S ANTHONY BLVD
19F130118 10:00:06 51,35 23XX WARSAW ST
19F130119 10:00:30 22RN RUNAWAY 3XX W WILDWOOD AVE
19F130122 10:10:23 103 UNWANTED 1XX E PETTIT AVE
19F130121 10:10:29 108 FOLLOWUP XX E MAIN ST
19F130123 10:19:04 911 HANG UP 3XX PURSLEY DR
19F130125 10:20:00 16,97 16XX ANDREW ST
19F130127 10:25:23 39 STOLEN VEHIC 1XX N SEMINOLE CIR
19F130126 10:25:40 16,97 16XX FOREST PARK BLVD
19F130128 10:35:17 HARASSMENT 18XX ST LOUIS AVE
19F130129 10:38:04 30 TRAFFIC STOP SPY RUN AVE & RIVERSIDE AVE
19F130130 10:39:34 129 3XX E WILLIAMS ST
19F130132 10:41:33 63 CONTACT 52XX HOAGLAND AVE
19F130131 10:42:06 30 TRAFFIC STOP LIMA RD & LEY RD
19F130133 10:47:46 17 MOTOR CHECK 42XX BLUFFTON RD
19F130134 10:51:49 911 HANG UP 46XX FAIRLAWN PASS
19F130135 11:02:11 30 TRAFFIC STOP W WASHINGTON BLVD & WEBSTER ST
19F130140 11:11:05 40A AUDIBLE 30XX OXFORD ST
19F130138 11:11:15 45 NEIGHBORHOOD VANGUARD DR & AIRPORT DR
19F130136 11:11:25 17 MOTOR CHECK SHERMAN BLVD & SPRING ST
19F130137 11:11:53 22I JUV INVEST 30XX NEW HAVEN AVE
19F130141 11:13:09 43 DISTURBANCE 33XX W COLISEUM BLVD
19F130139 11:13:45 30 TRAFFIC STOP E STATE BLVD & N CLINTON ST
19F130143 11:18:08 39R STOLEN RECO 10XX DAWNAN DR
19F130142 11:18:27 41 MAN DOWN 29XX GOSHEN RD
19F130144 11:19:32 41,36 49XX NORTHCREST DR
19F130145 11:20:10 15 ASSIST 69XX NORDALE DR
19F130146 11:32:47 29 SPECIAL ASGN 40XX PARNELL AVE
19F130147 11:33:06 46 DOMESTIC 29XX WESTBROOK DR
19F130151 11:38:09 51 THEFT 19XX THIRD ST
19F130148 11:39:00 83 INFO REPORT 17XX LOWER HUNTINGTON RD
19F130149 11:39:17 25 PD ACCIDENT S LAFAYETTE ST & E PAULDING RD
19F130150 11:42:25 23,35 VAND VEH 7XX FREDERICK ST
19F130152 11:42:44 50 BURGLARY 11XX EWING ST
19F130153 11:45:33 1 MEET 27XX E STATE BLVD
19F130155 11:52:21 15,85 ASST AT O 69XX NORDALE DR
19F130154 11:52:34 1 MEET 28XX E STATE BLVD
19F130156 11:53:40 40 ALARM 6XX W COLISEUM BLVD
19F130159 11:53:58 39 STOLEN VEHIC XX E MAIN ST
19F130157 11:58:16 51 THEFT 56XX WOODHEATH AVE
19F130174 12:02:17 108 FOLLOWUP XX E MAIN ST
19F130158 12:04:10 103 UNWANTED 18XX BLUFFTON RD
19F130160 12:09:22 26 PI ACCIDENT 60XX ADAMS CENTER RD
19F130163 12:14:45 EMS 11XX HUFFMAN ST
19F130161 12:14:51 48 SUSPICIOUS 43XX S ANTHONY BLVD
19F130162 12:18:09 32A DEATH NOTIF 20XX WALKER RD
19F130170 12:21:33 1 MEET 4XX AGNES ST
19F130166 12:22:18 40A AUDIBLE 23XX MORRIS ST
19F130164 12:22:32 17 MOTOR CHECK 4XX W COLISEUM BLVD
19F130165 12:22:37 51JO 43XX COLDWATER RD
19F130167 12:22:50 25 PD ACCIDENT 10XX W WASHINGTON BLVD
19F130168 12:31:26 51 THEFT 77XX SADDLEWOOD DR
19F130169 12:31:33 62 PARTY ARMED OXFORD ST & REED ST
19F130171 12:36:18 33,34 FAIRFIELD AVE & TAYLOR ST
19F130172 12:40:36 911 HANG UP 19XX HOBSON RD
19F130175 12:52:05 EMS 42XX W JEFFERSON BLVD
19F130173 12:52:52 102 THREATS 29XX WESTBROOK DR
19F130176 12:55:31 34 TRAFF HAZARD MAPLECREST RD & LAKE AVE
19F130177 12:58:06 66 MENTALLY ILL 12XX E CALIFORNIA RD
19F130178 13:00:40 24 MISSING PERS 25XX ABBEY DR
19F130179 13:06:20 129 3XX ESTERO RD
19F130183 13:12:34 44 NUISANCE 44XX OLIVER ST
19F130180 13:13:02 30 TRAFFIC STOP MAPLECREST RD & EVARD RD
19F130181 13:13:50 25 PD ACCIDENT N CLINTON ST & E WASHINGTON CENTER
19F130182 13:17:05 51 THEFT 33XX ELMHURST DR
19F130184 13:17:58 65T SUICIDE THR 11XX HUFFMAN ST
19F130185 13:19:32 48 SUSPICIOUS 53XX COLDWATER RD
19F130186 13:21:04 40A AUDIBLE 16XX ELMROW DR
19F130187 13:22:47 108 FOLLOWUP 37XX STAFFORD DR
19F130188 13:27:39 22N CHILD NEGLE MINER ST & W CREIGHTON AVE
19F130189 13:31:24 16,97 16XX ELMROW DR
19F130193 13:31:57 1 MEET XX E MAIN ST
19F130192 13:34:16 15 ASSIST 57XX MIRANDO DR
19F130190 13:34:58 25,86 ENGLE RD & W JEFFERSON BLVD
19F130191 13:35:47 30 TRAFFIC STOP E COLISEUM BLVD & N CLINTON ST
19F130251 13:41:02 39 STOLEN VEHIC 91XX YEAGER LN
19F130194 13:43:31 1 MEET 4XX E PAULDING RD
19F130195 13:44:04 43 DISTURBANCE 5XX W JEFFERSON BLVD
19F130199 13:44:40 46 DOMESTIC 20XX WOODHAVEN DR
19F130196 13:48:46 17R REREAD 4XX W COLISEUM BLVD
19F130197 13:50:07 25 PD ACCIDENT 63XX ENGLE RD
19F130198 13:50:35 25 PD ACCIDENT 63XX ENGLE RD
19F130200 13:52:37 48 SUSPICIOUS 59XX FERNWOOD AVE
19F130201 14:01:14 14 WARRANT 5XX W JEFFERSON BLVD
19F130202 14:02:03 50IP BURG I/P 57XX BLISSFIELD CT
19F130203 14:08:37 51 THEFT 25XX E DUPONT RD
19F130208 14:09:06 17 MOTOR CHECK 60XX BLUFFTON RD
19F130204 14:09:23 48 SUSPICIOUS 8XX LAKE AVE
19F130207 14:10:06 911 HANG UP 70XX COLDWATER RD
19F130205 14:10:46 30 TRAFFIC STOP FOX AVE & BELLE AVE
19F130216 14:11:17 18 WORK TRAFFIC TRIER RD & FERNBANK DR
19F130215 14:11:43 18 WORK TRAFFIC W CREIGHTON AVE & HOAGLAND AVE
19F130206 14:12:31 30 TRAFFIC STOP S LAFAYETTE ST & CONGRESS AVE
19F130209 14:21:07 48 SUSPICIOUS 18XX RESERVATION DR
19F130210 14:22:14 41,36 21XX SHERMAN BLVD
19F130211 14:26:43 33,34 E WALLEN RD & SHEARWATER PASS
19F130212 14:28:50 30 TRAFFIC STOP REED ST & E PONTIAC ST
19F130217 14:31:36 17 MOTOR CHECK 26XX FREEMAN ST
19F130238 14:32:17 50,ATTEMPTED 53XX NYACK AVE
19F130214 14:32:55 38 LOST/STOLEN EDSALL AVE & RAYMOND AVE
19F130218 14:35:35 80 CIVIL INVEST XX E MAIN ST
19F130219 14:36:10 37 PARKING VIOL 22XX NELSON ST
19F130220 14:37:12 103 UNWANTED 56XX KELSO LN
19F130225 14:40:01 14 WARRANT 9XX BUCHANAN ST
19F130221 14:40:08 48 SUSPICIOUS 70XX PREMIERE DR
19F130223 14:42:19 103 UNWANTED 2XX E PETTIT AVE
19F130222 14:42:52 25,86 W JEFFERSON BLVD & FULTON ST
19F130232 14:46:12 19 ESCORT 31XX MAUMEE AVE
19F130224 14:46:29 96 BATTERY 35XX TAYLOR ST
19F130227 14:47:30 1 MEET 59XX FERNWOOD AVE
19F130226 14:47:34 40P PANIC ALARM 15XX PROFIT DR
19F130228 14:52:37 51 THEFT 70XX AUTUMN CHASE DR
19F130229 14:52:41 30 TRAFFIC STOP 25XX N CLINTON ST
19F130230 14:53:43 25 PD ACCIDENT 13XX E WASHINGTON CENTER RD
19F130239 14:54:48 17 MOTOR CHECK 18XX POTAWATAMI DR
19F130231 14:55:22 43 DISTURBANCE CAPITOL AVE & EUCLID AVE
19F130236 14:57:35 46 DOMESTIC 2XX DALMAN AVE
19F130235 14:59:02 25HS HIT SKIP BLUFFTON RD & OLD TRAIL RD
19F130234 15:00:37 30 TRAFFIC STOP S HANNA ST & MCKINNIE AVE
19F130237 15:01:54 40ATM ATM ALARM 35XX N ANTHONY BLVD
19F130241 15:09:06 14 WARRANT XX E MAIN ST
19F130240 15:10:54 26HS PI HITSKIP BROOKLYN AVE & ONTARIO ST
19F130242 15:10:55 46 DOMESTIC 8XX AURORA KNOLL LN
19F130243 15:12:56 65T SUICIDE THR 30XX CANTERBURY BLVD
19F130244 15:18:13 26 PI ACCIDENT 29XX PLAZA DR
19F130245 15:19:09 25HS HIT SKIP 79XX W JEFFERSON BLVD
19F130246 15:25:36 25 PD ACCIDENT 20XX REED RD
19F130250 15:27:29 73 WALK AWAY 18XX BEACON ST
19F130247 15:27:42 25HS HIT SKIP 16XX E WASHINGTON BLVD
19F130248 15:28:15 30 TRAFFIC STOP W JEFFERSON BLVD & W MAIN ST
19F130249 15:29:32 25 PD ACCIDENT FAIRFIELD AVE & W MAIN ST
19F130253 15:35:10 46,96 27XX W WASHINGTON CENTER RD
19F130252 15:35:24 25 PD ACCIDENT W WAYNE ST & FAIRFIELD AVE
19F130254 15:35:53 37 PARKING VIOL 13XX ZOLLARS AVE
19F130255 15:41:27 40A AUDIBLE 1XX E WALLEN RD
19F130256 15:42:48 30 TRAFFIC STOP S LAFAYETTE ST & E PETTIT AVE
19F130257 15:42:56 129 27XX E STATE BLVD
19F130258 15:44:11 102 THREATS 76XX SOUTHTOWN XING
19F130260 15:46:29 99 NARCOTICS 4XX W CREIGHTON AVE
19F130259 15:46:40 65A SUICIDE ATT 11XX HUFFMAN ST
19F130261 15:52:35 30 TRAFFIC STOP LAKE AVE & INWOOD DR
19F130262 15:53:36 22RN RUNAWAY 18XX BEACON ST
19F130265 15:57:04 911 HANG UP 52XX VALUE DR
19F130263 15:58:51 30 TRAFFIC STOP W PONTIAC ST & FAIRFIELD VIEW PL
19F130264 16:00:21 30 TRAFFIC STOP 30XX S HARRISON ST
19F130266 16:02:03 46 DOMESTIC 75XX ENSIGN CT
19F130270 16:05:32 25 PD ACCIDENT E STATE BLVD & N COLISEUM BLVD
19F130267 16:07:37 30 TRAFFIC STOP SINCLAIR ST & LEORA ST
19F130268 16:08:31 30 TRAFFIC STOP 19XX N CLINTON ST
19F130269 16:09:00 25 PD ACCIDENT S LAFAYETTE ST & E MAIN ST
19F130271 16:13:44 14S SERVING WAR 27XX ENFIELD CV
19F130272 16:14:49 30 TRAFFIC STOP HIGH ST & DEGROFF ST
19F130273 16:18:19 911 HANG UP 2XX E PETTIT AVE
19F130275 16:18:58 50 BURGLARY 6XX PUTNAM ST
19F130274 16:21:37 30 TRAFFIC STOP W COLISEUM BLVD & SPEEDWAY DR
19F130277 16:23:47 44 NUISANCE 29XX HOLTON AVE
19F130276 16:27:33 15 ASSIST 9XX N ANTHONY BLVD
19F130279 16:30:54 102,TX THREATS 1XX E COLLINS RD
19F130278 16:30:55 46 DOMESTIC 40XX HESSEN CASSEL RD
19F130280 16:31:09 46 DOMESTIC 16XX W FOURTH ST
19F130281 16:38:12 96 BATTERY 57XX COVENTRY LN
19F130282 16:42:17 113 SHOTS FIRED S BARR ST & E MAIN ST
19F130283 16:43:41 25 PD ACCIDENT 16XX W FOURTH ST
19F130284 16:44:24 24 MISSING PERS 7XX TENNESSEE AVE
19F130285 16:48:24 48,36 50XX DRIFTWOOD DR
19F130286 16:57:28 66V MENTAL VIOL 77XX EVANWOOD CT
19F130297 16:57:30 47 REMOVE ITEMS 40XX HESSEN CASSEL RD
19F130328 16:58:40 39R STOLEN RECO 56XX OLD DOVER BLVD
19F130288 17:00:17 22RN RUNAWAY 50XX TURBO TRL
19F130289 17:01:00 101 OPEN DOOR 79XX SERENITY DR
19F130287 17:01:04 48 SUSPICIOUS 15XX CHEROKEE RD
19F130293 17:02:22 25HS HIT SKIP MCKINNIE AVE & WEISSER PARK AVE
19F130290 17:04:22 38 LOST/STOLEN 42XX COLDWATER RD
19F130292 17:04:31 22RN RUNAWAY 3XX W WILDWOOD AVE
19F130291 17:05:18 23 VANDALISM 67XX BRADBURY AVE
19F130294 17:17:11 61 RAPE 14XX KERRWAY CT
19F130295 17:18:48 30 TRAFFIC STOP COVINGTON RD & GETZ RD
19F130296 17:20:29 47 REMOVE ITEMS 18XX GREENTREE CT
19F130298 17:23:04 65T SUICIDE THR 27XX W COLISEUM BLVD
19F130299 17:25:49 23JO 49XX HILLEGAS RD
19F130302 17:29:21 37 PARKING VIOL 41XX HIAWATHA BLVD
19F130300 17:31:26 43 DISTURBANCE 74XX S ANTHONY BLVD
19F130301 17:31:44 24 MISSING PERS 8XX COTTAGE AVE
19F130304 17:31:59 46 DOMESTIC 4XX LASSELLE ST
19F130303 17:32:23 46 DOMESTIC 13XX GREENE ST
19F130309 17:39:24 50,ATTEMPTED 31XX BROADWAY
19F130305 17:43:48 33,34 10XX N COLISEUM BLVD
19F130306 17:44:53 96JO 10XX S BARR ST
19F130310 17:47:41 63 CONTACT 54XX RENFREW DR
19F130307 17:47:47 50IP BURG I/P 9XX NUTTMAN AVE
19F130308 17:50:42 23,35 VAND VEH 8XX COLUMBIA AVE
19F130325 17:52:22 22RN RUNAWAY 59XX MELAN CV
19F130311 17:52:23 30 TRAFFIC STOP W COLISEUM BLVD & LIMA RD
19F130312 17:58:27 22RN RUNAWAY 18XX BEACON ST
19F130314 17:58:46 63 CONTACT 28XX JAMES ST
19F130313 17:59:19 14 WARRANT 9XX E PAULDING RD
19F130315 18:06:34 70 STRUCTURE 56XX OLD DOVER BLVD
19F130318 18:07:11 34 TRAFF HAZARD BOWSER AVE & HURD ST
19F130316 18:08:57 30 TRAFFIC STOP WAWONAISSA TRL & BLUFFTON RD
19F130317 18:09:07 30 TRAFFIC STOP N CLINTON ST & FERNWOOD AVE
19F130319 18:09:52 25 PD ACCIDENT E STATE BLVD & MAPLECREST RD
19F130320 18:12:45 25 PD ACCIDENT STELLHORN RD & MAYSVILLE RD
19F130322 18:18:07 25 PD ACCIDENT E WASHINGTON CENTER RD & RIVIERA D
19F130323 18:18:50 911 HANG UP 29XX SANDARAC LN
19F130321 18:19:18 25 PD ACCIDENT LIMA RD & W WASHINGTON CENTER RD
19F130324 18:22:31 48 SUSPICIOUS CHESTNUT ST & EDSALL AVE
19F130327 18:27:10 43 DISTURBANCE 43XX JOSHUA LN
19F130326 18:28:34 40P PANIC ALARM 23XX MONTCLAIR AVE
19F130329 18:33:09 102 THREATS 19XX THIRD ST
19F130330 18:33:19 25HS HIT SKIP 44XX ILLINOIS RD
19F130331 18:38:23 30 TRAFFIC STOP W JEFFERSON BLVD & COVENTRY LN
19F130334 18:40:18 48 SUSPICIOUS 72XX WOOD MEADOWS LN
19F130333 18:41:25 48 SUSPICIOUS 59XX ILLINOIS RD
19F130332 18:41:42 30 TRAFFIC STOP BRIDLEWOOD DR & MAPLECREST RD
19F130335 18:46:56 22RN RUNAWAY 64XX BENNINGTON DR
19F130336 18:52:29 66 MENTALLY ILL 7XX ARCHER AVE
19F130337 18:53:07 33,34 N CLINTON ST & ST JOE CENTER RD
19F130338 18:56:02 51 THEFT 103XX COLDWATER RD
19F130340 18:59:41 25 PD ACCIDENT STELLHORN RD & MAPLECREST RD
19F130339 19:00:42 46 DOMESTIC 26XX BELLE VISTA BLVD
19F130341 19:03:10 17 MOTOR CHECK 6XX ELMER AVE
19F130342 19:08:24 911 HANG UP 20XX BROADWAY
19F130343 19:10:18 46 DOMESTIC 7XX CANDLELITE CT
19F130344 19:19:59 30 TRAFFIC STOP W JEFFERSON BLVD & LIBERTY MILLS R
19F130345 19:20:49 911 HANG UP 24XX GLENWOOD AVE
19F130346 19:22:15 30 TRAFFIC STOP WELLS ST & HIGH ST
19F130347 19:25:25 51JO 7XX NORTHCREST SHOPPING CTR
19F130348 19:28:35 25 PD ACCIDENT W JEFFERSON BLVD & SOUTHBEND DR
19F130350 19:29:59 63 CONTACT 12XX W PACKARD AVE
19F130354 19:30:02 63 CONTACT 12XX WELLS ST
19F130349 19:30:17 EMS 10XX ROCKHILL ST
19F130352 19:34:24 43 DISTURBANCE BAYLOR DR & COLGATE DR
19F130353 19:35:05 65T SUICIDE THR 2XX W WAYNE ST
19F130351 19:35:46 108 FOLLOWUP 50XX HESSEN CASSEL RD
19F130355 19:40:11 30 TRAFFIC STOP TURF LN & ABOITE CENTER RD
19F130356 19:40:43 40P PANIC ALARM 25XX GOSHEN RD
19F130359 19:42:52 25HS HIT SKIP MAUMEE AVE & E WASHINGTON BLVD
19F130357 19:43:00 40A AUDIBLE 43XX W JEFFERSON BLVD
19F130358 19:45:09 66V MENTAL VIOL 55XX E STATE BLVD
19F130360 19:48:04 27 RECKLESS DRI W TILL RD & LIMA RD
19F130362 19:49:04 911 HANG UP 29XX S CALHOUN ST
19F130361 19:49:27 EMS 70XX COLDWATER RD
19F130363 19:56:35 EMS 58XX CHALLENGER PKWY
19F130364 20:00:37 48,36 35XX ENGLE RD
19F130366 20:06:20 48 SUSPICIOUS 74XX MILL RUN RD
19F130365 20:06:32 129 64XX SHADY CREEK CT
19F130367 20:14:27 30 TRAFFIC STOP 45XX MAPLECREST RD
19F130368 20:17:26 40A AUDIBLE 73XX COVINGTON HOLLOW LN
19F130369 20:30:03 25 PD ACCIDENT ST JOSEPH BLVD & DEARBORN ST
19F130370 20:39:59 48 SUSPICIOUS S LAFAYETTE ST & E PAULDING RD
19F130373 20:40:30 50 BURGLARY 29XX EUCLID AVE
19F130371 20:41:34 63 CONTACT 30XX MCARTHUR DR
19F130372 20:49:17 48 SUSPICIOUS 103XX MAYSVILLE RD
19F130374 20:53:34 40P PANIC ALARM 41XX PARNELL AVE
19F130375 20:57:16 113 SHOTS FIRED ABBOTT ST & DREXEL AVE
19F130376 21:02:42 30 TRAFFIC STOP MAPLECREST RD & ARNEL AVE
19F130377 21:05:51 40A AUDIBLE 5XX E DUPONT RD
19F130378 21:06:47 22RN RUNAWAY 9XX E STATE BLVD
19F130379 21:07:50 30 TRAFFIC STOP WARSAW ST & E RUDISILL BLVD
19F130380 21:25:32 96JO 6XX W CREIGHTON AVE
19F130384 21:26:01 48,36 85XX ARDMORE AVE
19F130382 21:29:11 48 SUSPICIOUS AUBURN RD & OLD WALLEN CT
19F130381 21:29:23 25HS HIT SKIP 13XX E WASHINGTON CENTER RD
19F130383 21:31:27 33,34 N CLINTON ST & E STATE BLVD
19F130385 21:33:50 30 TRAFFIC STOP BLUFFTON RD & LOWER HUNTINGTON RD
19F130386 21:34:52 911 HANG UP 40XX S BARR ST
19F130387 21:36:33 103 UNWANTED 18XX MARY ST
19F130388 21:45:29 43 DISTURBANCE 51XX S CALHOUN ST
19F130389 21:49:06 40A AUDIBLE 40XX W JEFFERSON BLVD
19F130390 21:50:28 48 SUSPICIOUS 56XX OLD DOVER BLVD
19F130391 21:52:09 43 DISTURBANCE 11XX FULTON ST
19F130392 21:54:24 40A AUDIBLE 36XX S HANNA ST
19F130393 21:59:48 43 DISTURBANCE 57XX ST JOE RD
19F130395 22:05:32 48,36 2XX W BUTLER ST
19F130394 22:05:36 30 TRAFFIC STOP S LAFAYETTE ST & E PONTIAC ST
19F130396 22:06:39 30 TRAFFIC STOP RICHARDSVILLE AVE & S LAFAYETTE ST
19F130397 22:08:40 30 TRAFFIC STOP SHERMAN BLVD & RUSSELL AVE
19F130398 22:10:34 30 TRAFFIC STOP MAPLECREST RD & GROVELAND DR
19F130399 22:10:47 30 TRAFFIC STOP ILLINOIS RD & S HADLEY RD
19F130400 22:16:56 30 TRAFFIC STOP W MAIN ST & VAN BUREN ST
19F130401 22:20:14 30 TRAFFIC STOP MAPLECREST RD & STELLHORN RD
19F130402 22:21:21 30 TRAFFIC STOP LAVINA ST & FAIRFIELD AVE
19F130403 22:25:24 129 12XX W FOSTER PKWY
19F130404 22:27:20 48,36 34XX ARGYLE DR
19F130405 22:28:39 30 TRAFFIC STOP W COLISEUM BLVD & LIMA RD
19F130406 22:30:39 30 TRAFFIC STOP STELLHORN RD & MAPLECREST RD
19F130407 22:32:04 30 TRAFFIC STOP HIGH ST & OAKLAND ST
19F130408 22:32:18 96JO 32XX VICTOR LN
19F130409 22:33:00 30 TRAFFIC STOP BROADWAY & TAYLOR ST
19F130411 22:37:25 43 DISTURBANCE 22XX BROWN ST
19F130410 22:37:57 102,TX THREATS 46XX SPATZ AVE
19F130412 22:38:45 46,96 34XX BOWSER AVE
19F130413 22:46:51 46 DOMESTIC 9XX FRANCIS ST
19F130414 22:48:03 48,36 SMITH ST & HURD ST
19F130415 22:49:48 1 MEET 56XX OLD DOVER BLVD
19F130416 22:51:46 30 TRAFFIC STOP E COLISEUM BLVD & COLDWATER RD
19F130417 22:57:02 30 TRAFFIC STOP COLDWATER RD & E WASHINGTON CENTER
19F130419 22:58:09 48 SUSPICIOUS 14XX SPRING ST
19F130418 22:58:38 30 TRAFFIC STOP STELLHORN RD & REED RD
19F130420 22:59:28 66 MENTALLY ILL 10XX N COLISEUM BLVD
19F130421 23:10:36 30 TRAFFIC STOP 4XX W COLISEUM BLVD
19F130422 23:15:45 40A AUDIBLE 18XX W DUPONT RD
19F130427 23:19:00 46,96 8XX COTTAGE AVE
19F130423 23:19:13 129 54XX OLD MILL RD
19F130425 23:19:31 129 54XX OLD MILL RD
19F130426 23:19:47 129 54XX OLD MILL RD
19F130428 23:20:55 43,62 30XX OLIVER ST
19F130429 23:23:29 46 DOMESTIC 53XX REBECCA ST
19F130430 23:25:51 65T SUICIDE THR 29XX GOSHEN RD
19F130431 23:30:31 30 TRAFFIC STOP 35XX S HANNA ST
19F130432 23:30:34 48 SUSPICIOUS BROWN ST & BEVEL AVE
19F130433 23:35:56 63 CONTACT 12XX N COLISEUM BLVD
19F130434 23:38:05 43,62 1XX E WILDWOOD AVE
19F130435 23:46:53 30 TRAFFIC STOP 25XX W COLISEUM BLVD
19F130437 23:49:15 30 TRAFFIC STOP N CLINTON ST & E FOURTH ST
19F130438 23:52:50 48 SUSPICIOUS 37XX E WASHINGTON BLVD
19F130442 23:57:00 911 HANG UP 47XX ST JOE RD
19F130439 23:57:39 40A AUDIBLE 49XX PROJECTS DR
19F130440 23:59:06 26 PI ACCIDENT N COLISEUM BLVD & LAKE AVE